Location: Owatonna
(44.0840°N, 93.2260°W)
Time: 14:23:12
(UTC-05:00)

Tiangong 1 - Visible Passes

Search period start: 30 June 2016 00:00
Search period end: 10 July 2016 00:00
Orbit: 369 x 386 km, 42.8° (Epoch: 30 June)

Date Brightness Start Highest point End Pass type
(mag) Time Alt. Az. Time Alt. Az. Time Alt. Az.
30 Jun 1.6 21:45:12 10° SW 21:48:08 38° SSE 21:51:03 10° E visible
30 Jun 0.9 23:21:28 10° W 23:24:22 67° SSW 23:24:22 67° SSW visible
01 Jul 1.0 22:19:41 10° WSW 22:22:46 64° S 22:25:23 13° E visible
01 Jul 3.0 23:56:12 10° W 23:57:27 21° W 23:57:27 21° W visible
02 Jul 0.9 22:54:22 10° W 22:57:27 67° S 22:58:19 42° ESE visible
03 Jul 1.0 21:52:31 10° W 21:55:38 70° S 21:58:43 10° E visible
03 Jul 2.2 23:29:05 10° W 23:31:08 32° WSW 23:31:08 32° WSW visible
04 Jul 1.1 22:27:12 10° W 22:30:16 59° S 22:31:52 25° ESE visible
05 Jul 2.0 23:01:57 10° W 23:04:36 33° SSW 23:04:36 33° SSW visible
06 Jul 1.4 21:59:58 10° W 22:02:59 48° SSW 22:05:16 16° ESE visible
06 Jul 3.9 23:37:16 10° WSW 23:37:18 10° WSW 23:37:18 10° WSW visible
07 Jul 2.4 22:34:49 10° W 22:37:24 24° SSW 22:37:58 22° S visible
08 Jul 1.9 21:32:40 10° W 21:35:36 36° SSW 21:38:29 10° SE visible
09 Jul 3.1 22:07:48 10° WSW 22:09:52 17° SSW 22:11:22 13° S visible
